PDT,Max TemperatureF,Mean TemperatureF,Min TemperatureF,Max Dew PointF,MeanDew PointF,Min DewpointF,Max Humidity, Mean Humidity, Min Humidity, Max Sea Level PressureIn, Mean Sea Level PressureIn, Min Sea Level PressureIn, Max VisibilityMiles, Mean VisibilityMiles, Min VisibilityMiles, Max Wind SpeedMPH, Mean Wind SpeedMPH, Max Gust SpeedMPH,PrecipitationIn, CloudCover, Events, WindDirDegrees
2013-4-1,73,59,45,51,47,43,92,65,38,30.17,30.11,30.07,10,10,10,14,6,,0.00,2,,303
2013-4-2,75,63,51,50,48,43,89,61,33,30.17,30.12,30.06,10,10,8,16,8,22,0.00,0,,320
2013-4-3,81,64,46,54,50,45,93,65,36,30.13,30.07,29.97,10,9,7,9,2,,0.00,0,,34
2013-4-4,75,65,54,57,53,47,86,68,49,30.16,30.06,29.99,10,9,6,17,7,,0.07,2,Rain,318
2013-4-5,74,64,54,54,50,47,93,67,41,30.17,30.12,30.07,10,10,10,17,10,24,0.00,2,,324
2013-4-6,75,63,50,52,48,40,89,58,27,30.19,30.14,30.07,10,10,10,17,10,22,0.00,0,,324
2013-4-7,78,65,51,51,47,42,83,57,31,30.13,30.01,29.86,10,10,10,17,9,21,0.00,0,,327
2013-4-8,69,59,49,45,38,31,71,50,29,29.88,29.84,29.78,10,9,2,28,12,36,0.01,5,Rain,328
2013-4-9,72,57,42,39,34,26,76,48,19,30.06,29.99,29.90,10,10,10,14,6,18,0.00,0,,323
2013-4-10,81,61,41,42,38,34,82,51,19,30.19,30.09,30.03,10,10,10,7,2,,0.00,0,,105
2013-4-11,80,64,47,49,45,40,77,54,30,30.02,29.89,29.79,10,10,9,20,8,25,0.00,0,,334
2013-4-12,84,65,46,48,45,42,93,61,28,29.91,29.84,29.78,10,10,10,12,5,15,0.00,0,,317
2013-4-13,85,66,46,49,44,37,86,53,19,29.86,29.81,29.73,10,10,8,16,8,22,0.00,0,,320
2013-4-14,79,66,52,43,38,28,71,44,16,29.88,29.82,29.77,10,10,10,21,12,25,0.00,0,,322
2013-4-15,72,60,48,44,38,30,77,52,26,29.91,29.85,29.78,10,10,4,29,12,37,0.00,1,,321
2013-4-16,69,51,33,34,30,22,82,50,17,30.05,30.00,29.92,10,10,9,25,8,35,0.00,0,,323
2013-4-17,71,56,41,31,26,18,58,36,14,30.22,30.16,30.05,10,10,5,17,9,24,0.00,0,,314
2013-4-18,77,56,35,36,29,20,85,49,13,30.29,30.23,30.18,10,10,9,12,4,21,0.00,0,,20
2013-4-19,83,61,39,42,36,31,82,49,16,30.25,30.15,30.03,10,10,7,14,3,17,0.00,0,,349
2013-4-20,85,68,51,48,44,39,77,49,20,30.06,30.01,29.94,10,10,10,15,6,,0.00,0,,329
2013-4-21,89,67,45,44,41,33,74,45,15,30.04,29.97,29.91,10,10,10,10,4,14,0.00,0,,319
2013-4-22,90,69,48,47,43,38,80,51,21,29.96,29.89,29.80,10,10,6,14,4,20,0.00,0,,322
2013-4-23,87,72,57,46,37,33,40,28,16,29.94,29.86,29.81,10,10,10,14,7,16,0.00,0,,325
2013-4-24,90,68,46,45,40,35,71,43,15,29.85,29.80,29.72,10,10,9,17,7,31,0.00,0,,320
2013-4-25,80,65,49,49,47,45,83,57,30,30.06,29.99,29.87,10,10,8,13,6,16,0.00,0,,320
2013-4-26,86,70,54,50,44,34,83,50,17,30.19,30.13,30.09,10,10,9,10,6,25,0.00,0,,319
2013-4-27,91,71,51,52,48,44,77,50,22,30.19,30.11,30.01,10,10,7,13,6,25,0.00,0,,309
2013-4-28,93,73,52,54,47,34,83,48,13,30.02,29.94,29.84,10,9,5,16,5,23,0.00,0,,315
2013-4-29,93,73,53,52,49,45,77,51,24,29.88,29.80,29.70,10,10,7,16,6,22,0.00,0,,316
2013-4-30,88,75,61,48,40,27,56,35,14,29.80,29.75,29.71,10,10,8,24,12,31,0.00,0,,323